Lake Wallenpaupack Weather Center

Moon Phase Calendar



Lake Wallenpaupack Water Level
Online Cameras

 


      

Current Conditions in Tanglewood
7/6/2022 3:31:06 PM

77°F
Feels Like 77
Clouds
Humidity
53%
Pressure
29.88"
Wind
8 mph (NNW)
Dew Point
59°F
UV Index
5/10 (Moderate)
Visibility
6 mi

Hourly Forecast

Date & Time Wed, Jul 6
3:00 PM
Wed, Jul 6
4:00 PM
Wed, Jul 6
5:00 PM
Wed, Jul 6
6:00 PM
Wed, Jul 6
7:00 PM
Wed, Jul 6
8:00 PM
Wed, Jul 6
9:00 PM
Wed, Jul 6
10:00 PM
Wed, Jul 6
11:00 PM
Thu, Jul 7
12:00 AM
Thu, Jul 7
1:00 AM
Thu, Jul 7
2:00 AM
Thu, Jul 7
3:00 AM
Thu, Jul 7
4:00 AM
Thu, Jul 7
5:00 AM
Thu, Jul 7
6:00 AM
Thu, Jul 7
7:00 AM
Thu, Jul 7
8:00 AM
Thu, Jul 7
9:00 AM
Thu, Jul 7
10:00 AM
Thu, Jul 7
11:00 AM
Thu, Jul 7
12:00 PM
Thu, Jul 7
1:00 PM
Thu, Jul 7
2:00 PM
Thu, Jul 7
3:00 PM
Thu, Jul 7
4:00 PM
Thu, Jul 7
5:00 PM
Thu, Jul 7
6:00 PM
Thu, Jul 7
7:00 PM
Thu, Jul 7
8:00 PM
Thu, Jul 7
9:00 PM
Thu, Jul 7
10:00 PM
Thu, Jul 7
11:00 PM
Fri, Jul 8
12:00 AM
Fri, Jul 8
1:00 AM
Fri, Jul 8
2:00 AM
Fri, Jul 8
3:00 AM
Fri, Jul 8
4:00 AM
Fri, Jul 8
5:00 AM
Fri, Jul 8
6:00 AM
Fri, Jul 8
7:00 AM
Fri, Jul 8
8:00 AM
Fri, Jul 8
9:00 AM
Fri, Jul 8
10:00 AM
Fri, Jul 8
11:00 AM
Fri, Jul 8
12:00 PM
Fri, Jul 8
1:00 PM
Fri, Jul 8
2:00 PM
Condition
Clouds

Clouds

Clouds

Clouds

Clouds

Clouds

Clear

Clear

Clear

Clear

Clouds

Clouds

Clouds

Clouds

Clouds

Clouds

Rain

Clouds

Clouds

Clouds

Clouds

Clouds

Clouds

Clouds

Clouds

Clouds

Clouds

Clouds

Rain

Rain

Rain

Clear

Rain

Clouds

Clouds

Clouds

Clouds

Clouds

Clouds

Clouds

Clouds

Clouds

Rain

Rain

Rain

Clouds

Clouds

Clouds
Temperature 78°F77°F77°F76°F75°F71°F65°F63°F62°F61°F60°F59°F59°F60°F62°F62°F61°F61°F62°F63°F72°F74°F76°F78°F79°F77°F77°F77°F75°F70°F67°F66°F66°F66°F65°F65°F65°F64°F64°F65°F67°F69°F71°F74°F78°F81°F84°F84°F
Feels Like 78°F77°F77°F76°F75°F71°F66°F63°F62°F61°F60°F59°F59°F60°F62°F62°F61°F62°F62°F63°F71°F74°F76°F79°F79°F77°F77°F77°F76°F71°F68°F67°F67°F67°F66°F66°F66°F65°F65°F65°F67°F70°F72°F75°F78°F82°F83°F83°F
Cloudiness 86%85%86%88%90%83%7%4%5%7%16%16%23%38%59%69%75%79%100%100%100%98%98%98%89%94%95%96%94%78%0%3%25%40%52%60%93%86%87%88%79%79%95%97%98%99%98%98%
Visibility 6 mi6 mi6 mi6 mi6 mi6 mi6 mi6 mi6 mi6 mi6 mi6 mi6 mi6 mi6 mi6 mi6 mi6 mi6 mi6 mi6 mi6 mi6 mi6 mi6 mi6 mi6 mi6 mi6 mi6 mi6 mi6 mi6 mi6 mi6 mi6 mi6 mi6 mi6 mi6 mi6 mi6 mi6 mi6 mi6 mi6 mi6 mi6 mi
Precipitation 0%0%0%0%0%0%0%0%0%0%0%0%0%0%0%0%24%0%8%4%0%0%0%0%0%0%0%0%27%31%46%31%20%12%4%4%8%8%4%4%0%0%36%40%51%51%46%46%
Humidity 52%53%52%58%62%75%86%90%92%93%94%94%94%91%87%88%91%91%91%90%63%59%57%55%57%63%63%67%79%85%89%91%93%94%96%97%97%97%97%97%97%94%89%81%68%53%44%40%
Dew Point 59°F59°F58°F60°F61°F63°F61°F60°F59°F58°F58°F57°F57°F57°F57°F57°F58°F58°F59°F59°F58°F58°F59°F61°F62°F63°F63°F64°F67°F65°F63°F63°F63°F64°F64°F64°F64°F63°F63°F63°F65°F66°F67°F67°F66°F62°F59°F57°F
Pressure 29.88"29.88"29.88"29.88"29.91"29.91"29.94"29.97"29.97"29.97"29.97"29.97"29.97"29.97"29.97"30"30"30.03"30.03"30.03"30.03"30"30"29.97"29.97"29.94"29.94"29.94"29.94"29.97"29.97"29.97"29.97"29.97"29.97"29.97"29.97"29.97"29.97"29.97"30"30"30"30"30"29.97"29.97"29.94"
Wind Speed 10 mph8 mph8.4 mph7.2 mph6.7 mph4.3 mph4 mph3.2 mph2.4 mph2.2 mph2.7 mph2.8 mph2.2 mph2.6 mph3 mph2.7 mph1.4 mph2.5 mph2.8 mph2.9 mph4.4 mph4.9 mph4.2 mph3 mph2.3 mph2.4 mph2.2 mph1.6 mph1.4 mph1.3 mph1.6 mph2.4 mph2.3 mph2.3 mph2.7 mph1.7 mph0.8 mph0.5 mph0.4 mph1.2 mph1.3 mph0.9 mph1.9 mph3.7 mph5 mph5.9 mph7.5 mph8.2 mph
Wind
Direction
337°
NNW
348°
NNW
345°
NNW
347°
NNW
355°
N
356°
N
352°
N

N

N
22°
NNE
11°
N
21°
NNE

N
17°
NNE
52°
NE
41°
NE
28°
NNE
40°
NE
35°
NE
76°
ENE
88°
E
99°
E
102°
ESE
94°
E
96°
E
100°
E
142°
SE
169°
S
156°
SSE
167°
SSE
180°
S
163°
SSE
162°
SSE
149°
SSE
159°
SSE
162°
SSE
138°
SE
154°
SSE
269°
W
288°
WNW
309°
NW
296°
WNW
296°
WNW
306°
NW
312°
NW
310°
NW
314°
NW
318°
NW

Daily Forecast

Date High Low Precip. Humidity
Today
Jul 6

Rain
79 °F
62 °F
88%
50%
Thursday
Jul 7

Rain
79 °F
59 °F
46%
57%
Friday
Jul 8

Rain
84 °F
64 °F
51%
40%
Saturday
Jul 9

Clouds
78 °F
54 °F
0%
30%
Sunday
Jul 10

Clouds
77 °F
48 °F
0%
29%
Monday
Jul 11

Rain
80 °F
54 °F
28%
49%
Tuesday
Jul 12

Rain
86 °F
64 °F
96%
47%
Wednesday
Jul 13

Rain
81 °F
65 °F
77%
50%
Thursday
Jul 14

Clouds
78 °F
57 °F
0%
47%
Friday
Jul 15

Clear
77 °F
51 °F
0%
31%
Saturday
Jul 16

Clear
84 °F
54 °F
0%
34%
Sunday
Jul 17

Rain
84 °F
62 °F
65%
39%
Monday
Jul 18

Rain
78 °F
60 °F
100%
95%
Tuesday
Jul 19

Clear
82 °F
57 °F
15%
32%
Wednesday
Jul 20

Clouds
83 °F
53 °F
0%
27%
Thursday
Jul 21

Rain
82 °F
67 °F
85%
68%

Temperature 8-14 Day Outlook



Precipitation 8-14 Day Outlook




Quick Links
Lake Wallenpaupack News
Lake Wallenpaupack Photos
Lake Wallenpaupack Videos




About Us
Contact Us
Site Map
Search Site
Advertise With Us
   
Wallenpaupack.USLakes.info
THE LAKE WALLENPAUPACK WEBSITE

Copyright 2022, Lakes Online
Privacy    |    Legal